• In Netherlands
  • List of Countries
  • For 7 days
  • Water Temperature
  • Satellite Maps
  • Weather Map
  • Weather Widgets
  • user-avatar
    Login

    Hourly Weather Pabna

    Today, 30 April, Sunday

    Time Temperature Precipitation Wind Pressure Humidity
    00:00 +32°C° 0 mm 4 mps 753 mmHg 73%
    01:00 +30°C° 0 mm 4 mps 753 mmHg 75%
    02:00 +30°C° 0 mm 3 mps 753 mmHg 78%
    03:00 +30°C° 0 mm 3 mps 753 mmHg 81%
    04:00 +29°C° 0 mm 3 mps 753 mmHg 81%
    05:00 +29°C° 0 mm 4 mps 753 mmHg 82%
    06:00 +29°C° 0 mm 4 mps 753 mmHg 82%
    07:00 +32°C° 0 mm 4 mps 754 mmHg 75%
    08:00 +33°C° 0 mm 5 mps 754 mmHg 68%
    09:00 +35°C° 0 mm 5 mps 754 mmHg 61%
    10:00 +36°C° 0 mm 5 mps 754 mmHg 53%
    11:00 +39°C° 0 mm 5 mps 754 mmHg 46%
    12:00 +41°C° 0 mm 4 mps 754 mmHg 38%
    13:00 +42°C° 0 mm 4 mps 753 mmHg 35%
    14:00 +43°C° 0 mm 4 mps 752 mmHg 31%
    15:00 +44°C° 0 mm 4 mps 751 mmHg 28%
    16:00 +42°C° 0.4 mm 4 mps 751 mmHg 33%
    17:00 +41°C° 0.4 mm 5 mps 751 mmHg 38%
    18:00 +39°C° 0.4 mm 6 mps 750 mmHg 43%
    19:00 +36°C° 3.9 mm 5 mps 751 mmHg 52%
    20:00 +33°C° 3.9 mm 5 mps 752 mmHg 61%
    21:00 +30°C° 3.9 mm 5 mps 753 mmHg 70%
    22:00 +30°C° 0.2 mm 5 mps 753 mmHg 71%
    23:00 +30°C° 0.2 mm 4 mps 754 mmHg 71%

    Tomorrow, 1 May, Monday

    Time Temperature Precipitation Wind Pressure Humidity
    00:00 +30°C° 0.2 mm 4 mps 754 mmHg 71%
    01:00 +30°C° 1.1 mm 4 mps 754 mmHg 74%
    02:00 +29°C° 1.1 mm 3 mps 753 mmHg 77%
    03:00 +29°C° 1.1 mm 3 mps 753 mmHg 80%
    04:00 +29°C° 0 mm 3 mps 753 mmHg 82%
    05:00 +29°C° 0 mm 4 mps 753 mmHg 83%
    06:00 +29°C° 0 mm 4 mps 754 mmHg 84%
    07:00 +30°C° 0 mm 4 mps 754 mmHg 78%
    08:00 +33°C° 0 mm 4 mps 755 mmHg 71%
    09:00 +34°C° 0 mm 5 mps 755 mmHg 65%
    10:00 +36°C° 0 mm 4 mps 755 mmHg 60%
    11:00 +37°C° 0 mm 4 mps 755 mmHg 56%
    12:00 +38°C° 0 mm 4 mps 755 mmHg 51%
    13:00 +38°C° 0.6 mm 3 mps 754 mmHg 48%
    14:00 +39°C° 0.6 mm 3 mps 753 mmHg 45%
    15:00 +39°C° 0.6 mm 3 mps 752 mmHg 43%
    16:00 +39°C° 0.2 mm 3 mps 752 mmHg 46%
    17:00 +38°C° 0.2 mm 3 mps 751 mmHg 49%
    18:00 +37°C° 0.2 mm 4 mps 751 mmHg 52%
    19:00 +35°C° 7.5 mm 4 mps 752 mmHg 61%
    20:00 +32°C° 7.5 mm 5 mps 753 mmHg 69%
    21:00 +29°C° 7.5 mm 5 mps 754 mmHg 77%
    22:00 +29°C° 0 mm 5 mps 754 mmHg 74%
    23:00 +29°C° 0 mm 5 mps 754 mmHg 70%

    Day after tomorrow, 2 May, Tuesday

    Time Temperature Precipitation Wind Pressure Humidity
    00:00 +30°C° 0 mm 5 mps 753 mmHg 66%
    01:00 +29°C° 0 mm 4 mps 753 mmHg 70%
    02:00 +29°C° 0 mm 4 mps 753 mmHg 75%
    03:00 +28°C° 0 mm 3 mps 753 mmHg 79%
    04:00 +28°C° 0 mm 3 mps 753 mmHg 81%
    05:00 +28°C° 0 mm 2 mps 754 mmHg 84%
    06:00 +28°C° 0 mm 2 mps 754 mmHg 86%
    07:00 +30°C° 0 mm 3 mps 755 mmHg 82%
    08:00 +31°C° 0 mm 3 mps 755 mmHg 78%
    09:00 +33°C° 0 mm 4 mps 756 mmHg 74%
    10:00 +35°C° 0 mm 4 mps 755 mmHg 65%
    11:00 +37°C° 0 mm 4 mps 755 mmHg 57%
    12:00 +38°C° 0 mm 4 mps 754 mmHg 48%
    13:00 +39°C° 0 mm 3 mps 753 mmHg 42%
    14:00 +40°C° 0 mm 3 mps 752 mmHg 37%
    15:00 +43°C° 0 mm 3 mps 751 mmHg 31%
    16:00 +41°C° 0 mm 2 mps 751 mmHg 34%
    17:00 +40°C° 0 mm 2 mps 751 mmHg 37%
    18:00 +39°C° 0 mm 2 mps 750 mmHg 41%
    19:00 +37°C° 0.2 mm 3 mps 751 mmHg 48%
    20:00 +35°C° 0.2 mm 4 mps 752 mmHg 56%
    21:00 +34°C° 0.2 mm 5 mps 752 mmHg 64%
    22:00 +33°C° 0 mm 4 mps 753 mmHg 66%
    23:00 +33°C° 0 mm 4 mps 753 mmHg 69%

    3 May, Wednesday

    Time Temperature Precipitation Wind Pressure Humidity
    00:00 +31°C° 0 mm 3 mps 753 mmHg 72%
    01:00 +32°C° 0 mm 4 mps 753 mmHg 74%
    02:00 +30°C° 0 mm 4 mps 752 mmHg 76%
    03:00 +30°C° 0 mm 4 mps 752 mmHg 78%
    04:00 +29°C° 0 mm 4 mps 752 mmHg 80%
    05:00 +29°C° 0 mm 4 mps 752 mmHg 81%
    06:00 +29°C° 0 mm 4 mps 753 mmHg 82%
    07:00 +32°C° 0 mm 4 mps 753 mmHg 74%
    08:00 +33°C° 0 mm 4 mps 754 mmHg 67%
    09:00 +35°C° 0 mm 4 mps 754 mmHg 59%
    10:00 +37°C° 0 mm 4 mps 754 mmHg 52%
    11:00 +38°C° 0 mm 3 mps 754 mmHg 44%
    12:00 +40°C° 0 mm 3 mps 753 mmHg 37%
    13:00 +41°C° 0 mm 2 mps 752 mmHg 32%
    14:00 +42°C° 0 mm 2 mps 751 mmHg 28%
    15:00 +43°C° 0 mm 1 mps 751 mmHg 23%
    16:00 +43°C° 0 mm 3 mps 750 mmHg 28%
    17:00 +41°C° 0 mm 4 mps 750 mmHg 33%
    18:00 +40°C° 0 mm 5 mps 750 mmHg 38%
    19:00 +39°C° 0 mm 5 mps 751 mmHg 45%
    20:00 +36°C° 0 mm 5 mps 751 mmHg 52%
    21:00 +35°C° 0 mm 5 mps 752 mmHg 60%
    22:00 +34°C° 0 mm 5 mps 752 mmHg 63%
    23:00 +33°C° 0 mm 4 mps 752 mmHg 67%

    4 May, Thursday

    Time Temperature Precipitation Wind Pressure Humidity
    00:00 +32°C° 0 mm 4 mps 752 mmHg 70%
    01:00 +32°C° 0 mm 4 mps 752 mmHg 73%
    02:00 +30°C° 0 mm 4 mps 752 mmHg 75%
    03:00 +30°C° 0 mm 4 mps 752 mmHg 78%
    04:00 +30°C° 0 mm 4 mps 752 mmHg 80%
    05:00 +29°C° 0 mm 5 mps 752 mmHg 82%
    06:00 +29°C° 0 mm 5 mps 752 mmHg 84%
    07:00 +32°C° 0 mm 5 mps 753 mmHg 77%
    08:00 +33°C° 0 mm 5 mps 753 mmHg 70%
    09:00 +35°C° 0 mm 5 mps 754 mmHg 64%
    10:00 +36°C° 0 mm 5 mps 753 mmHg 56%
    11:00 +38°C° 0 mm 4 mps 753 mmHg 49%
    12:00 +41°C° 0 mm 4 mps 753 mmHg 41%
    13:00 +42°C° 0 mm 4 mps 752 mmHg 36%
    14:00 +44°C° 0 mm 3 mps 751 mmHg 31%
    15:00 +45°C° 0 mm 3 mps 750 mmHg 27%
    16:00 +44°C° 0 mm 4 mps 750 mmHg 31%
    17:00 +42°C° 0 mm 4 mps 750 mmHg 35%
    18:00 +41°C° 0 mm 5 mps 749 mmHg 39%
    19:00 +39°C° 0 mm 5 mps 750 mmHg 46%
    20:00 +38°C° 0 mm 6 mps 751 mmHg 52%
    21:00 +35°C° 0 mm 6 mps 751 mmHg 58%
    22:00 +34°C° 0.1 mm 6 mps 751 mmHg 62%
    23:00 +33°C° 0.1 mm 5 mps 752 mmHg 67%

    5 May, Friday

    Time Temperature Precipitation Wind Pressure Humidity
    00:00 +33°C° 0.1 mm 4 mps 752 mmHg 71%
    01:00 +32°C° 0 mm 4 mps 751 mmHg 73%
    02:00 +32°C° 0 mm 4 mps 751 mmHg 74%
    03:00 +32°C° 0 mm 4 mps 751 mmHg 75%
    04:00 +30°C° 0 mm 4 mps 751 mmHg 77%
    05:00 +30°C° 0 mm 4 mps 752 mmHg 78%
    06:00 +30°C° 0 mm 5 mps 752 mmHg 80%
    07:00 +32°C° 0 mm 5 mps 752 mmHg 75%
    08:00 +34°C° 0 mm 5 mps 753 mmHg 70%
    09:00 +35°C° 0 mm 5 mps 753 mmHg 64%
    10:00 +37°C° 0 mm 5 mps 753 mmHg 57%
    11:00 +39°C° 0 mm 5 mps 753 mmHg 50%
    12:00 +41°C° 0 mm 4 mps 753 mmHg 43%
    13:00 +42°C° 0 mm 4 mps 752 mmHg 38%
    14:00 +44°C° 0 mm 4 mps 751 mmHg 34%
    15:00 +45°C° 0 mm 4 mps 750 mmHg 29%
    16:00 +43°C° 0 mm 4 mps 750 mmHg 33%
    17:00 +42°C° 0 mm 4 mps 749 mmHg 36%
    18:00 +41°C° 0 mm 5 mps 749 mmHg 40%
    19:00 +39°C° 0.6 mm 5 mps 750 mmHg 47%
    20:00 +36°C° 0.6 mm 5 mps 750 mmHg 55%
    21:00 +35°C° 0.6 mm 6 mps 751 mmHg 62%
    22:00 +34°C° 0.1 mm 5 mps 751 mmHg 66%
    23:00 +33°C° 0.1 mm 5 mps 752 mmHg 70%
    Show more